カタログに戻る

FREGAT DEB

LostUNKNOWN
NORAD 46008·DEBRIS·🇷🇺 Russia

打ち上げ Jul 18, 2011 から Baikonur Cosmodrome

Loading…

次のパス (今後24時間)

TLE

古いSource: Space-Track

元期: Jan 25, 2022, 01:12 UTC

1 46008U 11037HK  22025.05061407  .00142910  00000-0  80960-1 0  9995
2 46008  50.9731 303.0235 1786042 181.4842 297.9029 11.22608640 61349

AllMySatでFREGAT DEBをリアルタイム追跡

Download on the App Store